Total_Precipitation_Accumulation
0.00 0.00 0.00 0.00 0.00 0.01 0.02 0.02 0.03 0.03 0.03 0.05 0.07 0.10 0.13 0.18 0.22 0.25 0.26 0.27 0.28 0.28 0.28 0.31 0.33 0.37 0.43 0.43 0.42 0.41 0.39 0.44 0.44 0.12 0.05 0.07 0.13 0.18 0.19 0.18 0.16 0.15 0.18
0.00 0.00 0.00 0.00 0.01 0.02 0.04 0.06 0.06 0.06 0.07 0.09 0.12 0.16 0.20 0.23 0.26 0.33 0.36 0.37 0.42 0.41 0.38 0.37 0.39 0.41 0.45 0.48 0.50 0.49 0.43 0.39 0.44 0.27 0.08 0.07 0.12 0.19 0.23 0.25 0.24 0.19 0.16
0.00 0.00 0.00 0.00 0.01 0.03 0.06 0.10 0.15 0.19 0.21 0.23 0.26 0.31 0.38 0.41 0.43 0.46 0.50 0.58 0.64 0.62 0.60 0.59 0.54 0.52 0.55 0.52 0.53 0.53 0.48 0.41 0.38 0.34 0.18 0.12 0.15 0.21 0.28 0.31 0.32 0.29 0.23
0.00 0.00 0.00 0.01 0.04 0.06 0.09 0.15 0.24 0.34 0.41 0.46 0.50 0.54 0.59 0.67 0.78 0.83 0.81 0.81 0.81 0.78 0.76 0.77 0.76 0.75 0.74 0.71 0.69 0.62 0.57 0.54 0.47 0.41 0.30 0.22 0.23 0.25 0.35 0.39 0.40 0.37 0.33
0.01 0.01 0.02 0.05 0.10 0.17 0.20 0.23 0.31 0.40 0.48 0.52 0.53 0.55 0.59 0.81 1.15 1.27 1.11 0.90 0.76 0.72 0.70 0.72 0.79 0.89 0.94 0.97 1.01 0.87 0.74 0.73 0.67 0.59 0.45 0.35 0.30 0.34 0.41 0.45 0.53 0.49 0.44
0.02 0.03 0.06 0.11 0.18 0.25 0.29 0.32 0.39 0.45 0.48 0.47 0.48 0.48 0.50 0.67 1.07 1.21 0.92 0.64 0.52 0.54 0.59 0.58 0.59 0.71 0.77 0.82 0.93 0.92 0.90 0.95 0.93 0.81 0.67 0.55 0.43 0.41 0.46 0.56 0.65 0.70 0.64
0.04 0.06 0.10 0.13 0.17 0.20 0.23 0.28 0.33 0.31 0.27 0.29 0.35 0.34 0.34 0.45 0.81 0.94 0.65 0.35 0.25 0.30 0.39 0.42 0.43 0.50 0.60 0.63 0.66 0.65 0.71 0.81 0.95 0.98 0.93 0.75 0.60 0.52 0.57 0.62 0.67 0.74 0.72
0.04 0.07 0.10 0.12 0.16 0.14 0.13 0.17 0.20 0.17 0.16 0.19 0.21 0.17 0.15 0.23 0.55 0.74 0.52 0.22 0.15 0.20 0.28 0.32 0.32 0.36 0.50 0.66 0.72 0.60 0.54 0.64 0.86 1.00 1.10 0.98 0.82 0.77 0.85 0.91 0.91 0.87 0.85
0.04 0.05 0.07 0.10 0.14 0.12 0.10 0.11 0.14 0.14 0.13 0.12 0.11 0.08 0.06 0.10 0.38 0.69 0.54 0.20 0.15 0.15 0.20 0.28 0.27 0.24 0.40 0.53 0.58 0.53 0.43 0.48 0.58 0.78 0.88 0.87 0.82 0.86 0.98 1.13 1.16 1.15 1.16
0.02 0.03 0.03 0.04 0.06 0.05 0.04 0.03 0.04 0.06 0.06 0.05 0.04 0.03 0.03 0.04 0.20 0.61 0.67 0.28 0.19 0.14 0.15 0.21 0.29 0.28 0.36 0.40 0.41 0.43 0.46 0.45 0.39 0.40 0.46 0.52 0.58 0.66 0.84 1.06 1.18 1.25 1.26
0.00 0.00 0.00 0.00 0.01 0.01 0.01 0.02 0.02 0.03 0.03 0.03 0.03 0.02 0.02 0.03 0.07 0.38 0.75 0.52 0.29 0.18 0.17 0.22 0.24 0.26 0.29 0.29 0.31 0.37 0.49 0.39 0.30 0.31 0.33 0.37 0.45 0.56 0.72 0.91 1.11 1.24 1.29
0.00 0.00 0.00 0.00 0.01 0.01 0.02 0.02 0.02 0.03 0.03 0.03 0.03 0.03 0.03 0.02 0.06 0.23 0.49 0.60 0.43 0.24 0.22 0.17 0.17 0.18 0.18 0.20 0.22 0.29 0.26 0.23 0.28 0.28 0.28 0.31 0.38 0.50 0.63 0.75 0.93 1.12 1.24
0.00 0.00 0.00 0.01 0.01 0.02 0.02 0.03 0.03 0.04 0.06 0.07 0.07 0.06 0.04 0.04 0.08 0.21 0.24 0.29 0.36 0.31 0.32 0.28 0.15 0.11 0.12 0.12 0.15 0.19 0.19 0.23 0.31 0.30 0.27 0.29 0.36 0.47 0.53 0.60 0.69 0.87 1.01
0.00 0.01 0.01 0.01 0.02 0.02 0.03 0.04 0.05 0.07 0.18 0.22 0.16 0.12 0.09 0.09 0.19 0.35 0.25 0.15 0.19 0.26 0.27 0.23 0.14 0.11 0.11 0.09 0.07 0.10 0.15 0.20 0.24 0.26 0.24 0.24 0.27 0.35 0.44 0.55 0.64 0.74 0.88
0.01 0.01 0.01 0.02 0.03 0.03 0.04 0.04 0.06 0.09 0.26 0.38 0.29 0.27 0.25 0.28 0.38 0.46 0.37 0.31 0.30 0.30 0.28 0.23 0.16 0.14 0.14 0.13 0.09 0.07 0.09 0.13 0.17 0.19 0.20 0.21 0.24 0.31 0.38 0.48 0.61 0.70 0.84
0.01 0.02 0.02 0.03 0.04 0.04 0.04 0.04 0.05 0.08 0.14 0.16 0.18 0.26 0.27 0.36 0.38 0.31 0.30 0.31 0.31 0.29 0.27 0.26 0.17 0.12 0.11 0.10 0.10 0.08 0.07 0.09 0.12 0.15 0.17 0.19 0.22 0.28 0.34 0.39 0.51 0.64 0.77
0.02 0.03 0.05 0.05 0.05 0.05 0.06 0.08 0.09 0.07 0.06 0.06 0.09 0.14 0.23 0.30 0.26 0.23 0.25 0.24 0.23 0.22 0.24 0.18 0.12 0.11 0.10 0.09 0.09 0.08 0.07 0.06 0.07 0.11 0.13 0.14 0.17 0.22 0.28 0.34 0.41 0.53 0.67
0.02 0.03 0.06 0.06 0.07 0.08 0.10 0.12 0.13 0.13 0.10 0.06 0.05 0.07 0.14 0.20 0.19 0.17 0.20 0.22 0.19 0.16 0.17 0.14 0.12 0.10 0.09 0.09 0.09 0.08 0.07 0.07 0.08 0.09 0.10 0.10 0.13 0.18 0.23 0.28 0.35 0.46 0.58
0.02 0.04 0.07 0.08 0.08 0.10 0.11 0.13 0.13 0.12 0.12 0.09 0.07 0.06 0.08 0.12 0.12 0.12 0.14 0.18 0.16 0.12 0.11 0.10 0.09 0.09 0.09 0.09 0.09 0.08 0.08 0.08 0.07 0.08 0.08 0.09 0.10 0.14 0.19 0.21 0.27 0.37 0.48
0.02 0.05 0.08 0.09 0.10 0.11 0.13 0.14 0.15 0.15 0.14 0.12 0.10 0.09 0.15 0.19 0.15 0.12 0.13 0.14 0.14 0.11 0.09 0.08 0.07 0.07 0.09 0.09 0.09 0.10 0.09 0.08 0.08 0.08 0.07 0.07 0.07 0.10 0.14 0.17 0.22 0.30 0.40
0.04 0.05 0.08 0.10 0.11 0.13 0.16 0.18 0.19 0.19 0.18 0.15 0.11 0.10 0.25 0.28 0.18 0.13 0.13 0.13 0.13 0.12 0.10 0.09 0.08 0.08 0.09 0.10 0.10 0.10 0.09 0.08 0.07 0.07 0.07 0.06 0.06 0.07 0.10 0.13 0.18 0.24 0.33
0.07 0.08 0.10 0.13 0.14 0.17 0.20 0.20 0.20 0.21 0.19 0.17 0.12 0.10 0.16 0.18 0.15 0.13 0.12 0.11 0.11 0.11 0.12 0.13 0.11 0.10 0.12 0.14 0.14 0.13 0.11 0.08 0.07 0.07 0.07 0.06 0.06 0.06 0.07 0.10 0.13 0.19 0.27
0.11 0.13 0.13 0.13 0.15 0.18 0.18 0.16 0.17 0.19 0.18 0.16 0.15 0.14 0.14 0.13 0.13 0.13 0.12 0.11 0.11 0.11 0.11 0.13 0.13 0.11 0.12 0.13 0.13 0.15 0.15 0.11 0.08 0.08 0.09 0.07 0.06 0.06 0.06 0.08 0.11 0.17 0.25
0.13 0.13 0.14 0.15 0.17 0.18 0.19 0.18 0.18 0.19 0.19 0.19 0.17 0.15 0.13 0.12 0.11 0.11 0.10 0.10 0.10 0.10 0.11 0.13 0.14 0.13 0.13 0.15 0.14 0.13 0.13 0.12 0.12 0.11 0.09 0.09 0.08 0.07 0.07 0.09 0.10 0.15 0.22
0.10 0.12 0.15 0.18 0.21 0.22 0.22 0.21 0.20 0.20 0.21 0.20 0.18 0.15 0.13 0.11 0.10 0.09 0.09 0.10 0.10 0.10 0.11 0.13 0.14 0.15 0.15 0.15 0.15 0.15 0.14 0.16 0.19 0.22 0.26 0.28 0.23 0.17 0.14 0.14 0.13 0.15 0.20
0.10 0.13 0.17 0.21 0.24 0.25 0.27 0.28 0.25 0.24 0.24 0.21 0.18 0.16 0.14 0.13 0.12 0.10 0.10 0.12 0.14 0.14 0.12 0.12 0.13 0.16 0.17 0.16 0.16 0.17 0.19 0.22 0.30 0.41 0.50 0.47 0.33 0.21 0.16 0.16 0.15 0.16 0.20